Location: Arrodets-la-Barthe
(43.0306°N, 0.2829°E)
Time: 14:07:31
(UTC+00:00)

SL-16 R/B - Pass Details

Date: 24 October 2021
Orbit: 842 x 846 km, 71.0° (Epoch: 07 December)

Event Time Altitude Azimuth Distance (km) Brightness Sun altitude
Rises 19:35:13 0° 247° (WSW) 3,393 6.2 -28.6°
Reaches altitude 10° 19:38:17 10° 263° (W) 2,463 5.5 -29.1°
Maximum altitude 19:42:27 21° 311° (NW) 1,831 4.5 -29.9°
Drops below altitude 10° 19:46:38 10° 359° (N) 2,474 4.8 -30.6°
Enters shadow 19:49:30 - 14° (NNE) 3,331 5.3 -31.1°
